Terminal Aerodrome Forecast
Issued by NWS Kansas City/Pleasant Hill, MO

Home | Current Version | Previous Version | Text Only | Print | Product List | Glossary On
Versions: 1 2 3 4 5 6 7 8 9 10 11 12 13 14 15 16 17 18 19 20 21 22
000
FTUS43 KEAX 251200 AAA
TAFMCI
TAF AMD
KMCI 251209Z 2512/2612 36004KT 2SM BR SKC
      TEMPO 2512/2514 1/4SM FG VV001
     FM251400 04005KT P6SM SKC
     FM252100 11006KT P6SM SKC=

USA.gov is the U.S. government's official web portal to all federal, state and local government web resources and services.